Altus AFB, OK

10:25 AM CST on February 27, 2017 (GMT -0600)
Altus Air Force Base

Weather History for KLTS - October, 2011

Change the Weather History Date:

Saturday, October 8, 2011

  Actual Average Record
Temperature  
Mean Temperature 68 °F -  
Max Temperature 77 °F 76 °F 92 °F (2014)
Min Temperature 60 °F 54 °F 32 °F (2012)
Cooling Degree Days 4    
Growing Degree Days 18 (Base 50)    
Moisture  
Dew Point 63 °F    
Average Humidity 93    
Maximum Humidity 100    
Minimum Humidity 63    
Precipitation  
Precipitation 1.81 in - - ()
Sea Level Pressure  
Sea Level Pressure 29.94 in    
Wind  
Wind Speed 18 mph (ESE)    
Max Wind Speed 30 mph    
Max Gust Speed 36 mph    
Visibility 8 miles    
Events Fog , Rain , Thunderstorm    
Averages and records for this station are not official NWS values.
T = Trace of Precipitation, MM = Missing Value Source: NWS Daily Summary

Daily Weather History Graph

Daily Weather History Graph

Search for Another Location

Airport or City:

Trip Planner

Search our weather history database for the weather conditions in past years. The results will help you decide how hot, cold, wet, or windy it might be!

Date:

Astronomy

Oct. 08, 2011 Rise Set
Actual Time 7:36 AM CDT 7:11 PM CDT
Civil Twilight 7:11 AM CDT 7:37 PM CDT
Nautical Twilight 6:42 AM CDT 8:06 PM CDT
Astronomical Twilight 6:13 AM CDT 8:35 PM CDT
Moon 5:17 PM CDT (10/8) 4:32 AM CDT (10/8)
Length of Visible Light 12h 25m
Length of Day
11h 34m
Waxing Gibbous, 90% of the Moon is Illuminated
Oct 8
Waxing Gibbous
Oct 11
Full
Oct 19
Last Quarter
Oct 26
New
Nov 2
First Quarter

Hourly Weather History & Observations

Time (CDT) Temp. Dew Point Humidity Pressure Visibility Wind Dir Wind Speed Gust Speed Precip Events Conditions
12:55 AM 77.7 °F 64.4 °F 63% 29.84 in 10.0 mi SE 27.6 mph 34.5 mph N/A   Clear
1:55 AM 76.8 °F 64.8 °F 66% 29.84 in 10.0 mi SE 23.0 mph 29.9 mph N/A   Clear
2:55 AM 76.1 °F 64.9 °F 68% 29.84 in 10.0 mi SE 29.9 mph 35.7 mph N/A   Scattered Clouds
3:55 AM 74.8 °F 64.9 °F 71% 29.86 in 10.0 mi SSE 24.2 mph 33.4 mph N/A   Scattered Clouds
4:30 AM 75.2 °F 64.4 °F 69% 29.86 in 10.0 mi SSE 23.0 mph 28.8 mph N/A   Overcast
4:55 AM 74.7 °F 64.9 °F 72% 29.86 in 10.0 mi SSE 23.0 mph 32.2 mph N/A   Overcast
5:17 AM 75.2 °F 64.4 °F 69% 29.87 in 10.0 mi SSE 25.3 mph 33.4 mph N/A   Overcast
5:55 AM 73.6 °F 64.6 °F 73% 29.86 in 10.0 mi SE 23.0 mph 28.8 mph N/A   Mostly Cloudy
6:06 AM 73.4 °F 64.4 °F 73% 29.86 in 10.0 mi SE 19.6 mph 29.9 mph N/A   Mostly Cloudy
6:21 AM 73.4 °F 64.4 °F 73% 29.85 in 10.0 mi SE 24.2 mph 31.1 mph N/A   Overcast
6:27 AM 73.4 °F 64.4 °F 73% 29.85 in 10.0 mi SE 26.5 mph 31.1 mph N/A   Mostly Cloudy
6:31 AM 73.4 °F 64.4 °F 73% 29.85 in 10.0 mi SE 23.0 mph 31.1 mph N/A   Scattered Clouds
6:55 AM 73.2 °F 64.6 °F 74% 29.86 in 10.0 mi SE 25.3 mph 31.1 mph N/A   Scattered Clouds
7:23 AM 73.4 °F 64.4 °F 73% 29.88 in 10.0 mi SE 24.2 mph 32.2 mph N/A   Overcast
7:55 AM 73.6 °F 63.7 °F 71% 29.88 in 10.0 mi SE 25.3 mph 35.7 mph N/A   Overcast
8:14 AM 73.4 °F 62.6 °F 69% 29.88 in 10.0 mi SE 26.5 mph 34.5 mph N/A   Overcast
8:55 AM 74.7 °F 63.5 °F 68% 29.90 in 10.0 mi SE 25.3 mph 33.4 mph N/A   Mostly Cloudy
9:03 AM 75.2 °F 64.4 °F 69% 29.91 in 10.0 mi SE 21.9 mph 32.2 mph N/A   Overcast
9:20 AM 75.2 °F 64.4 °F 69% 29.92 in 10.0 mi SE 25.3 mph 32.2 mph N/A   Overcast
9:55 AM 74.7 °F 64.4 °F 70% 29.92 in 10.0 mi SE 23.0 mph 33.4 mph N/A   Overcast
10:00 AM 75.2 °F 64.4 °F 69% 29.93 in 9.0 mi West 15.0 mph 32.2 mph N/A Thunderstorm Light Drizzle
10:01 AM 75.2 °F 64.4 °F 69% 29.94 in 9.0 mi West 13.8 mph - N/A Thunderstorm Light Drizzle
10:05 AM 73.4 °F 66.2 °F 78% 29.95 in 8.0 mi West 11.5 mph - N/A Rain , Thunderstorm Light Rain
10:13 AM 66.2 °F 60.8 °F 83% 29.95 in 6.0 mi NW 15.0 mph 21.9 mph N/A Rain Rain
10:26 AM 62.6 °F 60.8 °F 94% 29.93 in 4.0 mi NW 12.7 mph 24.2 mph N/A Rain , Thunderstorm Heavy Rain
10:27 AM 62.6 °F 60.8 °F 94% 29.93 in 3.0 mi NW 11.5 mph 24.2 mph N/A Rain , Thunderstorm Heavy Rain
10:28 AM 62.6 °F 60.8 °F 94% 29.93 in 2.5 mi NW 12.7 mph 24.2 mph N/A Rain , Thunderstorm Heavy Rain
10:29 AM 62.6 °F 60.8 °F 94% 29.93 in 2.5 mi NW 13.8 mph 24.2 mph N/A Rain , Thunderstorm Heavy Thunderstorms and Rain
10:32 AM 62.6 °F 60.8 °F 94% 29.95 in 1.8 mi NW 15.0 mph - N/A Rain , Thunderstorm Heavy Thunderstorms and Rain
10:40 AM 62.6 °F 62.6 °F 100% 29.94 in 0.8 mi WNW 9.2 mph - N/A Rain , Thunderstorm Heavy Thunderstorms and Rain
10:42 AM 62.6 °F 62.6 °F 100% 29.95 in 0.5 mi NNW 11.5 mph - N/A Fog , Rain , Thunderstorm Heavy Thunderstorms and Rain
10:46 AM 62.6 °F 62.6 °F 100% 29.96 in 0.8 mi NNW 8.1 mph - N/A Rain , Thunderstorm Thunderstorms and Rain
10:47 AM 62.6 °F 62.6 °F 100% 29.96 in 0.8 mi NNW 6.9 mph - N/A Rain , Thunderstorm Thunderstorms and Rain
10:55 AM 62.2 °F 61.9 °F 99% 29.96 in 1.5 mi NNW 5.8 mph - 0.43 in Rain , Thunderstorm Light Thunderstorms and Rain
10:57 AM 62.6 °F 62.6 °F 100% 29.97 in 6.0 mi WSW 5.8 mph - N/A Rain , Thunderstorm Light Thunderstorms and Rain
11:00 AM 62.6 °F 62.6 °F 100% 29.97 in 8.0 mi WSW 6.9 mph - N/A Rain , Thunderstorm Light Thunderstorms and Rain
11:07 AM 62.6 °F 62.6 °F 100% 29.98 in 10.0 mi SW 8.1 mph - N/A Rain , Thunderstorm Light Thunderstorms and Rain
11:11 AM 62.6 °F 62.6 °F 100% 29.98 in 10.0 mi West 6.9 mph - N/A Rain , Thunderstorm Light Thunderstorms and Rain
11:15 AM 62.6 °F 62.6 °F 100% 29.98 in 7.0 mi West 5.8 mph - N/A Rain Rain
11:25 AM 62.6 °F 62.6 °F 100% 29.97 in 9.0 mi Calm Calm - N/A Rain Light Rain
11:33 AM 62.6 °F 60.8 °F 94% 29.97 in 10.0 mi North 4.6 mph - N/A Rain Light Rain
11:55 AM 63.1 °F 61.9 °F 96% 29.99 in 10.0 mi Calm Calm - 0.03 in Rain Light Rain
12:24 PM 64.4 °F 60.8 °F 88% 29.95 in 10.0 mi NNE 3.5 mph - N/A   Light Drizzle
12:25 PM 64.4 °F 62.6 °F 94% 29.95 in 10.0 mi Variable 3.5 mph - N/A   Overcast
12:41 PM 64.4 °F 62.6 °F 94% 29.94 in 10.0 mi Calm Calm - N/A   Light Drizzle
12:55 PM 64.2 °F 62.8 °F 95% 29.95 in 10.0 mi SSE 6.9 mph - 0.00 in   Light Drizzle
12:59 PM 64.4 °F 62.6 °F 94% 29.96 in 10.0 mi SE 6.9 mph - N/A   Overcast
1:08 PM 64.4 °F 62.6 °F 94% 29.96 in 10.0 mi SE 9.2 mph - N/A Rain Light Rain
1:33 PM 64.4 °F 64.4 °F 100% 29.94 in 9.0 mi ESE 11.5 mph - N/A Rain Light Rain
1:40 PM 64.4 °F 64.4 °F 100% 29.93 in 9.0 mi SE 10.4 mph - N/A Rain Light Rain
1:48 PM 64.4 °F 64.4 °F 100% 29.94 in 10.0 mi SE 12.7 mph - N/A Rain Light Rain
1:55 PM 64.8 °F 64.6 °F 99% 29.94 in 10.0 mi SE 10.4 mph - 0.06 in Rain Light Rain
1:56 PM 64.4 °F 64.4 °F 100% 29.94 in 9.0 mi SE 13.8 mph - N/A Rain Light Rain
2:02 PM 64.4 °F 64.4 °F 100% 29.95 in 8.0 mi SSE 13.8 mph - N/A Rain Light Rain
2:18 PM 64.4 °F 64.4 °F 100% 29.98 in 10.0 mi South 16.1 mph - N/A Rain Light Rain
2:22 PM 64.4 °F 64.4 °F 100% 29.99 in 10.0 mi South 16.1 mph - N/A Rain Light Rain
2:28 PM 64.4 °F 64.4 °F 100% 29.99 in 10.0 mi South 15.0 mph - N/A Rain Light Rain
2:39 PM 64.4 °F 64.4 °F 100% 29.99 in 8.0 mi South 11.5 mph - N/A Rain Light Rain
2:42 PM 64.4 °F 64.4 °F 100% 29.99 in 7.0 mi South 11.5 mph - N/A Rain Light Rain
2:47 PM 64.4 °F 64.4 °F 100% 29.99 in 6.0 mi SSE 10.4 mph - N/A Rain Light Rain
2:55 PM 64.0 °F 64.0 °F 100% 29.98 in 6.0 mi South 12.7 mph - 0.11 in Rain Rain
3:23 PM 64.4 °F 64.4 °F 100% 29.97 in 7.0 mi SE 6.9 mph - N/A Rain , Thunderstorm Light Thunderstorms and Rain
3:31 PM 64.4 °F 64.4 °F 100% 29.94 in 9.0 mi ESE 8.1 mph - N/A Rain , Thunderstorm Light Thunderstorms and Rain
3:38 PM 64.4 °F 64.4 °F 100% 29.94 in 8.0 mi NE 3.5 mph - N/A Rain , Thunderstorm Rain
3:44 PM 64.4 °F 64.4 °F 100% 29.95 in 5.0 mi East 5.8 mph - N/A Rain , Thunderstorm Light Rain
3:55 PM 64.0 °F 64.0 °F 100% 29.94 in 5.0 mi ESE 6.9 mph - 0.17 in Rain Light Rain
4:17 PM 64.4 °F 64.4 °F 100% 29.95 in 10.0 mi ESE 8.1 mph - N/A Rain Light Rain
4:55 PM 63.9 °F 63.9 °F 100% 29.95 in 10.0 mi East 12.7 mph - 0.00 in Rain Light Rain
4:57 PM 64.4 °F 64.4 °F 100% 29.95 in 10.0 mi East 11.5 mph - N/A Rain Light Rain
5:00 PM 64.4 °F 64.4 °F 100% 29.94 in 10.0 mi East 8.1 mph - N/A Rain Light Rain
5:14 PM 64.4 °F 64.4 °F 100% 29.95 in 6.0 mi East 10.4 mph - N/A Rain Light Rain
5:23 PM 64.4 °F 64.4 °F 100% 29.96 in 8.0 mi East 15.0 mph - N/A Rain Light Rain
5:31 PM 64.4 °F 64.4 °F 100% 29.96 in 8.0 mi East 13.8 mph - N/A Rain Light Rain
5:39 PM 64.4 °F 64.4 °F 100% 29.95 in 8.0 mi East 15.0 mph - N/A Rain Light Rain
5:45 PM 64.4 °F 64.4 °F 100% 29.94 in 7.0 mi East 12.7 mph - N/A Rain Light Rain
5:55 PM 63.5 °F 63.5 °F 100% 29.94 in 6.0 mi East 10.4 mph - 0.13 in Rain Light Rain
5:56 PM 62.6 °F 62.6 °F 100% 29.93 in 8.0 mi East 12.7 mph - N/A Rain Light Rain
6:04 PM 62.6 °F 62.6 °F 100% 29.92 in 10.0 mi East 12.7 mph - N/A Rain Light Rain
6:08 PM 62.6 °F 62.6 °F 100% 29.92 in 8.0 mi East 12.7 mph - N/A Rain Light Rain
6:11 PM 62.6 °F 62.6 °F 100% 29.93 in 8.0 mi East 13.8 mph - N/A Rain Light Rain
6:18 PM 62.6 °F 62.6 °F 100% 29.93 in 9.0 mi East 12.7 mph - N/A Rain Light Rain
6:55 PM 63.1 °F 63.1 °F 100% 29.94 in 9.0 mi East 20.7 mph - 0.05 in Rain Light Rain
7:19 PM 62.6 °F 62.6 °F 100% 29.96 in 7.0 mi ESE 19.6 mph 27.6 mph N/A Rain Light Rain
7:29 PM 62.6 °F 62.6 °F 100% 29.95 in 5.0 mi East 19.6 mph - N/A Rain Rain
7:32 PM 62.6 °F 62.6 °F 100% 29.94 in 4.0 mi East 20.7 mph - N/A Rain Rain
7:43 PM 62.6 °F 62.6 °F 100% 29.92 in 6.0 mi East 25.3 mph 29.9 mph N/A Rain Light Rain
7:55 PM 62.1 °F 62.1 °F 100% 29.91 in 6.0 mi East 25.3 mph 31.1 mph 0.19 in Rain Light Rain
8:02 PM 62.6 °F 62.6 °F 100% 29.94 in 7.0 mi East 16.1 mph - N/A Rain Light Rain
8:08 PM 62.6 °F 62.6 °F 100% 29.94 in 6.0 mi East 20.7 mph - N/A Rain Light Rain
8:36 PM 62.6 °F 62.6 °F 100% 29.93 in 10.0 mi East 23.0 mph 27.6 mph N/A Rain Light Rain
8:40 PM 62.6 °F 62.6 °F 100% 29.92 in 10.0 mi East 20.7 mph 27.6 mph N/A Rain Light Rain
8:46 PM 62.6 °F 62.6 °F 100% 29.94 in 10.0 mi East 21.9 mph 27.6 mph N/A Rain Light Rain
8:55 PM 62.1 °F 62.1 °F 100% 29.97 in 10.0 mi East 16.1 mph 27.6 mph 0.09 in Rain Light Rain
8:59 PM 62.6 °F 62.6 °F 100% 30.00 in 10.0 mi ESE 13.8 mph - N/A Rain Light Rain
9:19 PM 62.6 °F 62.6 °F 100% 30.00 in 10.0 mi ESE 13.8 mph - N/A Rain Light Rain
9:27 PM 62.6 °F 62.6 °F 100% 29.99 in 9.0 mi ESE 15.0 mph 23.0 mph N/A Rain Light Rain
9:41 PM 62.6 °F 62.6 °F 100% 29.99 in 7.0 mi ESE 20.7 mph - N/A Rain Light Rain
9:42 PM 62.6 °F 62.6 °F 100% 29.99 in 8.0 mi ESE 20.7 mph - N/A Rain Light Rain
9:55 PM 61.7 °F 61.7 °F 100% 29.99 in 7.0 mi ESE 24.2 mph - 0.09 in Rain Light Rain
10:00 PM 60.8 °F 60.8 °F 100% 30.00 in 7.0 mi ESE 20.7 mph 29.9 mph N/A Rain Light Rain
10:04 PM 60.8 °F 60.8 °F 100% 29.99 in 6.0 mi ESE 24.2 mph 29.9 mph N/A Rain Rain
10:44 PM 60.8 °F 60.8 °F 100% 30.00 in 6.0 mi ESE 24.2 mph 32.2 mph N/A Rain Light Rain
10:55 PM 61.5 °F 61.5 °F 100% 29.99 in 6.0 mi ESE 24.2 mph 28.8 mph 0.23 in Rain Light Rain
11:05 PM 60.8 °F 60.8 °F 100% 30.01 in 5.0 mi ESE 24.2 mph 32.2 mph N/A Rain Light Rain
11:08 PM 60.8 °F 60.8 °F 100% 30.01 in 5.0 mi ESE 24.2 mph 32.2 mph N/A Rain Light Rain
11:13 PM 60.8 °F 60.8 °F 100% 30.02 in 4.0 mi ESE 24.2 mph 32.2 mph N/A Rain Rain
11:23 PM 60.8 °F 60.8 °F 100% 30.03 in 5.0 mi ESE 19.6 mph 28.8 mph N/A Rain Light Rain
11:37 PM 60.8 °F 60.8 °F 100% 30.04 in 6.0 mi ESE 16.1 mph - N/A Rain Light Rain
11:43 PM 60.8 °F 60.8 °F 100% 30.04 in 6.0 mi ESE 15.0 mph - N/A Rain Rain
11:55 PM 61.0 °F 61.0 °F 100% 30.04 in 5.0 mi ESE 12.7 mph - 0.23 in Rain Light Rain